PBO Station Position Time Series. Reference Frame : NAM14
Format Version,1.1.0
4-character ID,CSHQ
Station name,Camp_Schurmann
Begin Date, 2014-09-18
End Date, 2019-10-07
Release Date, 2019-10-08
Reference position, 46.8707272287 North Latitude, -121.7324313168 East Longitude, 2882.32708 meters elevation,
Date, North (mm), East (mm), Vertical (mm), North Std. Deviation (mm), East Std. Deviation (mm),              Vertical Std. Deviation (mm), Quality,
2014-09-18,0.00, 0.00, 0.00, 2.44, 1.68, 7.24, repro,
2014-09-19,-4.00, 2.79, -6.25, 2.51, 1.70, 7.46, repro,
2014-09-20,-1.90, -2.24, -8.97, 2.40, 1.66, 7.22, repro,
2014-09-21,-6.65, -6.80, -16.97, 2.39, 1.67, 7.37, repro,
2014-09-22,7.20, 1.57, -3.40, 2.39, 1.67, 7.35, repro,
2014-09-23,2.95, 1.33, -4.03, 2.44, 1.69, 7.40, repro,
2014-09-24,2.88, 0.65, -17.82, 2.58, 1.86, 8.14, repro,
2014-09-25,-1.21, -3.63, -10.12, 2.38, 1.67, 7.28, repro,
2014-09-26,-4.72, -8.06, -36.29, 2.55, 1.74, 7.63, repro,
2014-09-27,-1.01, -2.90, -16.93, 2.39, 1.67, 7.43, repro,
2014-09-28,0.43, -1.74, -5.51, 2.41, 1.68, 7.34, repro,
2014-09-29,-4.35, -5.98, -8.15, 2.40, 1.68, 7.39, repro,
2014-09-30,0.44, -3.51, -8.17, 2.38, 1.67, 7.31, repro,
2014-10-01,-2.08, -0.96, -9.37, 2.40, 1.67, 7.34, repro,
2014-10-02,-2.84, 0.62, -9.84, 2.50, 1.72, 7.62, repro,
2014-10-03,-2.11, -2.08, -11.56, 2.39, 1.68, 7.37, repro,
2014-10-04,-6.95, -0.16, -24.59, 2.43, 1.69, 7.44, repro,
2014-10-05,-3.99, -0.38, -12.22, 2.44, 1.68, 7.43, repro,
2014-10-06,-2.75, -2.41, -6.88, 2.42, 1.68, 7.39, repro,
2014-10-07,-1.71, -3.15, -11.02, 2.41, 1.70, 7.44, repro,
2014-10-08,-0.64, -5.11, 0.02, 2.42, 1.68, 7.44, repro,
2014-10-09,-0.06, -3.86, -10.07, 2.41, 1.68, 7.41, repro,
2014-10-10,-2.56, -3.35, -10.39, 2.43, 1.68, 7.39, repro,
2014-10-11,1.18, -0.17, 3.72, 2.41, 1.69, 7.38, repro,
2014-10-12,-0.73, -1.39, -1.62, 2.42, 1.70, 7.42, repro,
2014-10-13,-0.32, 1.24, -5.44, 2.42, 1.70, 7.61, repro,
2014-10-14,-0.57, 2.63, -21.24, 2.51, 1.77, 7.89, repro,
2014-10-15,-0.70, -0.02, -11.96, 2.40, 1.68, 7.33, repro,
2014-10-16,-7.39, -7.34, -19.85, 2.41, 1.69, 7.32, repro,
2014-10-17,-0.38, -0.73, -16.17, 2.39, 1.70, 7.45, repro,
2014-10-18,-3.32, 4.77, -29.67, 2.50, 1.74, 7.73, repro,
2014-10-19,-6.32, -3.18, -13.29, 2.46, 1.72, 7.53, repro,
2014-10-20,1.66, 2.24, -8.00, 2.41, 1.68, 7.36, repro,
2014-10-21,-4.77, -2.98, -6.15, 2.47, 1.71, 7.46, repro,
2014-10-22,-0.36, -1.27, -25.44, 2.46, 1.72, 7.45, repro,
2014-10-23,-2.25, 0.75, -8.20, 2.40, 1.70, 7.49, repro,
2014-10-24,-1.17, -0.10, -10.89, 2.39, 1.69, 7.40, repro,
2014-10-25,5.66, 1.70, -10.58, 2.40, 1.69, 7.40, repro,
2014-10-26,0.71, 0.35, -9.90, 2.37, 1.68, 7.32, repro,
2014-10-27,-0.82, -1.60, -11.92, 2.45, 1.73, 7.58, repro,
2014-10-28,-0.10, 3.11, -6.71, 2.51, 1.75, 7.71, repro,
2014-10-29,-2.89, -0.69, -8.83, 2.38, 1.68, 7.40, repro,
2014-10-30,2.68, 0.78, -20.16, 2.38, 1.68, 7.39, repro,
2014-10-31,0.46, -2.68, -16.73, 2.37, 1.70, 7.40, repro,
2014-11-01,-0.86, -3.54, -18.06, 2.44, 1.77, 7.62, repro,
2014-11-02,-2.94, -0.36, -11.64, 2.43, 1.71, 7.44, repro,
2014-11-03,-3.14, -3.99, -18.36, 2.40, 1.71, 7.49, repro,
2014-11-04,-4.55, -1.10, -17.72, 2.41, 1.70, 7.53, repro,
2014-11-05,-1.79, 3.58, -14.40, 2.42, 1.73, 7.54, repro,
2014-11-06,1.84, 3.22, -14.42, 2.44, 1.71, 7.49, repro,
2014-11-07,-1.51, -2.52, -9.92, 2.47, 1.73, 7.49, repro,
2014-11-08,-5.02, 2.07, -15.64, 2.42, 1.71, 7.56, repro,
2014-11-09,-1.01, 1.23, -9.94, 2.42, 1.70, 7.49, repro,
2014-11-10,0.25, -0.07, -10.73, 2.39, 1.71, 7.48, repro,
2014-11-11,0.80, -0.41, -18.12, 2.40, 1.70, 7.36, repro,
2014-11-12,0.26, -1.28, -14.72, 2.45, 1.71, 7.49, repro,
2014-11-13,-1.99, -1.81, -14.74, 2.42, 1.71, 7.47, repro,
2014-11-14,-1.02, -0.21, -19.18, 2.39, 1.69, 7.43, repro,
2014-11-15,0.81, -1.12, -10.81, 2.38, 1.71, 7.54, repro,
2014-11-16,-1.85, -3.24, -18.00, 2.40, 1.71, 7.47, repro,
2014-11-17,-1.07, -1.53, -17.12, 2.46, 1.75, 7.60, repro,
2014-11-18,-2.71, -1.80, -15.75, 2.45, 1.73, 7.51, repro,
2014-11-19,-1.96, -2.63, -18.94, 2.42, 1.71, 7.55, repro,
2014-11-20,-7.53, -10.44, -21.71, 2.56, 1.76, 7.90, repro,
2014-11-21,-6.70, -6.78, -8.44, 2.53, 1.76, 7.84, repro,
2014-11-22,0.24, 0.28, 1.30, 2.55, 1.76, 7.82, repro,
2014-11-23,0.79, 0.39, -0.69, 2.49, 1.73, 7.67, repro,
2014-11-24,-1.43, -0.89, -9.00, 2.50, 1.74, 7.69, repro,
2014-11-25,-1.58, 0.96, -23.51, 2.48, 1.72, 7.70, repro,
2014-11-26,0.06, 2.26, -18.52, 2.51, 1.73, 7.81, repro,
2014-11-27,0.97, 1.60, -12.88, 2.44, 1.70, 7.56, repro,
2014-11-28,-1.91, -2.25, -0.96, 2.43, 1.70, 7.48, repro,
2014-11-29,0.70, -1.92, -9.22, 2.48, 1.75, 7.64, repro,
2014-11-30,-1.32, -1.06, -13.42, 2.39, 1.69, 7.42, repro,
2014-12-01,-2.27, -1.34, -17.14, 2.44, 1.69, 7.52, repro,
2014-12-02,-4.53, -0.83, -8.27, 2.50, 1.73, 7.63, repro,
2014-12-03,-1.34, -1.73, -16.41, 2.43, 1.71, 7.56, repro,
2014-12-04,-3.42, -3.76, -23.15, 2.45, 1.70, 7.53, repro,
2014-12-05,-3.57, -3.00, -6.22, 2.45, 1.70, 7.53, repro,
2014-12-06,2.20, 0.37, -20.30, 2.41, 1.69, 7.53, repro,
2014-12-07,-5.91, -2.78, -23.71, 2.50, 1.75, 7.79, repro,
2014-12-08,-2.35, -1.02, -10.27, 2.49, 1.73, 7.66, repro,
2014-12-09,4.11, 7.33, -18.44, 2.50, 1.72, 7.65, repro,
2014-12-10,3.74, 1.04, -20.02, 2.49, 1.71, 7.58, repro,
2014-12-11,0.59, -0.27, -3.98, 2.51, 1.73, 7.80, repro,
2014-12-12,0.67, -1.27, -6.45, 2.52, 1.70, 7.62, repro,
2014-12-13,-1.37, -2.97, -23.58, 2.43, 1.69, 7.47, repro,
2014-12-14,-0.13, -2.05, -20.87, 2.41, 1.68, 7.41, repro,
2014-12-15,-3.74, -3.88, -22.48, 2.43, 1.70, 7.46, repro,
2014-12-16,-1.43, -3.35, -22.85, 2.50, 1.73, 7.59, repro,
2014-12-17,-1.56, -3.07, -15.48, 2.49, 1.70, 7.47, repro,
2014-12-18,-3.22, -0.85, -18.01, 2.40, 1.68, 7.38, repro,
2014-12-19,0.55, 1.34, -17.32, 2.42, 1.72, 7.58, repro,
2014-12-20,-0.78, 0.34, -18.21, 2.44, 1.69, 7.37, repro,
2014-12-21,-0.86, 0.70, -9.44, 2.44, 1.70, 7.47, repro,
2014-12-22,-0.00, 1.10, -18.86, 2.44, 1.67, 7.41, repro,
2014-12-23,-1.31, -0.64, -22.12, 2.44, 1.67, 7.42, repro,
2014-12-24,-1.18, 1.10, -18.67, 2.46, 1.70, 7.42, repro,
2014-12-25,-0.49, 0.94, -11.41, 2.50, 1.75, 7.68, repro,
2014-12-26,-0.36, 0.50, -15.59, 2.42, 1.67, 7.38, repro,
2014-12-27,-4.48, 0.42, -20.16, 2.40, 1.66, 7.35, repro,
2014-12-28,-1.08, 0.19, -23.46, 2.52, 1.71, 7.62, repro,
2014-12-29,-1.00, -1.54, -21.46, 2.52, 1.74, 7.75, repro,
2014-12-30,-0.70, -0.42, -27.76, 2.44, 1.69, 7.52, repro,
2014-12-31,-1.98, -0.13, -26.21, 2.41, 1.67, 7.37, repro,
2015-01-01,-0.29, 0.26, -17.06, 2.48, 1.69, 7.48, repro,
2015-01-02,-2.78, 3.07, -25.14, 2.46, 1.69, 7.43, repro,
2015-01-03,-3.90, -0.55, -28.17, 2.50, 1.68, 7.41, repro,
2015-01-04,-3.65, 1.97, -28.48, 2.49, 1.73, 7.60, repro,
2015-10-03,1.05, -0.25, -10.93, 2.39, 1.68, 7.32, repro,
2015-10-04,-1.40, -1.95, -8.87, 2.35, 1.67, 7.23, repro,
2015-10-05,-0.20, -1.81, -5.20, 2.39, 1.74, 7.46, repro,
2015-10-06,-1.70, -0.76, -8.18, 2.33, 1.69, 7.24, repro,
2015-10-07,-3.38, 9.74, -13.19, 2.33, 1.68, 7.36, repro,
2015-10-08,-5.56, -0.55, 6.47, 2.34, 1.68, 7.29, repro,
2015-10-09,-0.85, 6.73, -1.63, 2.47, 1.74, 7.64, repro,
2015-10-10,2.47, 8.64, -4.76, 2.37, 1.69, 7.36, repro,
2015-10-11,-2.62, 0.43, 0.31, 2.33, 1.70, 7.34, repro,
2015-10-12,2.10, 7.62, 6.19, 2.33, 1.70, 7.40, repro,
2015-10-13,-2.55, 4.82, -1.49, 2.32, 1.69, 7.34, repro,
2015-10-14,-2.87, 2.55, -8.70, 2.36, 1.69, 7.36, repro,
2015-10-15,-2.24, -2.84, -15.78, 2.39, 1.72, 7.36, repro,
2015-10-16,-5.87, -5.62, -16.31, 2.35, 1.69, 7.33, repro,
2015-10-17,5.48, -4.27, -10.02, 2.36, 1.70, 7.40, repro,
2015-10-18,-1.54, -0.83, -10.87, 2.31, 1.68, 7.33, repro,
2015-10-19,-1.44, -1.78, -6.82, 2.32, 1.68, 7.27, repro,
2015-10-20,-1.64, 1.21, -2.88, 2.37, 1.70, 7.50, repro,
2015-10-21,-1.66, 1.25, -15.98, 2.33, 1.67, 7.25, repro,
2015-10-22,-1.53, -0.18, -15.32, 2.36, 1.69, 7.33, repro,
2015-10-23,-1.55, 0.11, -15.72, 2.34, 1.69, 7.34, repro,
2015-10-24,-0.11, 0.30, -3.53, 2.29, 1.67, 7.23, repro,
2015-10-25,10.10, 3.76, -5.48, 2.34, 1.68, 7.31, repro,
2015-10-26,-0.64, 1.88, -10.80, 2.34, 1.67, 7.33, repro,
2015-10-27,-1.76, -1.55, -9.57, 2.33, 1.67, 7.26, repro,
2015-10-28,-2.30, -5.59, -18.60, 2.35, 1.68, 7.32, repro,
2015-10-29,-0.66, 1.48, -1.36, 2.30, 1.67, 7.31, repro,
2015-10-30,0.73, 1.75, 2.04, 2.33, 1.67, 7.34, repro,
2015-10-31,-1.85, 0.22, 1.48, 2.33, 1.67, 7.27, repro,
2015-11-01,1.62, 1.25, 2.61, 2.33, 1.68, 7.31, repro,
2015-11-02,-1.65, -0.86, -10.49, 2.34, 1.69, 7.39, repro,
2015-11-03,-0.62, 1.60, -10.96, 2.37, 1.71, 7.43, repro,
2015-11-04,-1.31, 1.90, -7.46, 2.35, 1.69, 7.36, repro,
2015-11-05,-4.11, 1.78, -16.35, 2.35, 1.69, 7.35, repro,
2015-11-06,-2.20, 1.31, -19.67, 2.37, 1.69, 7.34, repro,
2015-11-07,-1.38, 4.35, -2.07, 2.44, 1.80, 7.84, repro,
2015-11-08,-0.87, 5.42, -7.07, 2.35, 1.70, 7.36, repro,
2015-11-09,-2.81, 4.11, -15.56, 2.43, 1.73, 7.48, repro,
2015-11-10,-2.45, 3.59, -24.52, 2.37, 1.74, 7.50, repro,
2015-11-11,-2.91, 0.09, -8.75, 2.34, 1.71, 7.35, repro,
2015-11-12,-2.28, 3.56, -8.14, 2.39, 1.70, 7.37, repro,
2015-11-13,2.12, 3.41, -14.71, 2.38, 1.70, 7.39, repro,
2015-11-14,-0.55, 3.02, -17.85, 2.34, 1.71, 7.34, repro,
2015-11-15,1.56, 1.41, -4.36, 2.35, 1.69, 7.32, repro,
2015-11-16,-3.28, 1.15, -12.54, 2.37, 1.71, 7.42, repro,
2015-11-17,-1.59, 1.34, -11.03, 2.37, 1.69, 7.36, repro,
2015-11-18,0.95, 0.63, -13.38, 2.38, 1.71, 7.43, repro,
2015-11-19,-2.04, 0.07, -9.18, 2.35, 1.70, 7.39, repro,
2015-11-20,-0.99, 1.34, -15.67, 2.35, 1.69, 7.33, repro,
2015-11-21,-1.16, -0.82, -20.98, 2.34, 1.69, 7.35, repro,
2015-11-22,-2.14, -0.09, -17.18, 3.73, 2.64, 11.14, repro,
2015-11-26,-1.26, -1.50, -19.32, 5.61, 3.35, 16.13, repro,
2015-11-27,-0.28, 0.22, -21.26, 2.35, 1.69, 7.34, repro,
2015-11-28,-0.47, -0.56, -15.44, 2.35, 1.70, 7.34, repro,
2015-11-29,0.04, -0.38, -14.61, 2.35, 1.69, 7.33, repro,
2015-11-30,-0.14, -2.86, -20.25, 2.37, 1.70, 7.33, repro,
2015-12-01,-2.31, -2.51, -15.57, 2.38, 1.70, 7.32, repro,
2015-12-02,-0.25, 2.55, -20.93, 2.37, 1.68, 7.25, repro,
2015-12-20,6.37, 1.57, -12.60, 5.61, 3.19, 15.53, repro,
2015-12-21,-0.75, 2.58, -11.35, 2.43, 1.68, 7.42, repro,
2015-12-22,-2.07, -0.53, -5.41, 2.43, 1.69, 7.42, repro,
2015-12-23,-0.91, 3.34, -14.32, 2.37, 1.67, 7.40, repro,
2015-12-24,-0.02, 1.85, -17.20, 2.36, 1.68, 7.39, repro,
2015-12-25,1.06, 2.35, -21.02, 2.37, 1.66, 7.36, repro,
2015-12-26,-2.90, 1.67, -32.89, 2.36, 1.67, 7.37, repro,
2015-12-27,-4.21, 1.93, -32.57, 2.44, 1.68, 7.54, repro,
2015-12-28,-1.29, 1.73, -22.63, 2.44, 1.72, 7.55, repro,
2015-12-29,0.57, 2.26, -32.12, 2.41, 1.69, 7.43, repro,
2015-12-30,2.00, 2.05, -29.98, 2.36, 1.68, 7.32, repro,
2015-12-31,1.52, 2.02, -25.49, 2.38, 1.68, 7.37, repro,
2016-01-01,-0.30, 2.20, -29.60, 2.39, 1.66, 7.39, repro,
2016-01-02,2.37, 2.42, -25.38, 2.42, 1.72, 7.55, repro,
2016-01-03,2.50, 4.86, -23.33, 2.39, 1.67, 7.33, repro,
2016-01-04,2.60, 9.36, -22.26, 2.37, 1.66, 7.32, repro,
2016-01-05,-0.18, -0.28, -17.19, 2.39, 1.68, 7.37, repro,
2016-01-06,-2.00, 1.10, -27.22, 2.46, 1.69, 7.43, repro,
2016-01-07,1.44, 1.89, -24.65, 2.43, 1.70, 7.58, repro,
2016-01-08,2.04, 2.45, -25.78, 2.44, 1.74, 7.77, repro,
2016-01-09,1.30, 2.62, -28.47, 2.43, 1.71, 7.53, repro,
2016-01-10,-1.47, 1.70, -31.12, 2.43, 1.68, 7.49, repro,
2016-01-11,0.19, 5.27, -24.65, 2.36, 1.66, 7.29, repro,
2016-01-12,-0.80, 5.34, -24.04, 2.36, 1.66, 7.24, repro,
2016-01-13,0.62, 5.23, -31.85, 2.40, 1.68, 7.33, repro,
2016-01-14,0.24, 4.11, -22.59, 2.41, 1.69, 7.35, repro,
2016-01-15,1.16, 2.05, -28.95, 2.50, 1.74, 7.60, repro,
2016-01-16,0.21, 9.29, -17.79, 2.38, 1.67, 7.27, repro,
2016-01-17,-3.55, 5.91, -21.36, 3.23, 2.37, 10.05, repro,
2016-01-18,1.89, 3.26, -25.79, 4.91, 3.17, 13.95, repro,
2016-01-19,1.80, 3.89, -23.92, 2.39, 1.69, 7.38, repro,
2016-01-20,0.66, 2.40, -22.39, 2.39, 1.69, 7.36, repro,
2016-01-21,2.56, 9.47, -34.43, 2.40, 1.69, 7.39, repro,
2016-01-22,4.02, 6.48, -23.76, 2.36, 1.66, 7.19, repro,
2016-01-23,0.81, -0.10, -29.63, 2.35, 1.65, 7.21, repro,
2016-01-24,-0.36, 3.12, -30.69, 2.38, 1.68, 7.31, repro,
2016-01-25,-0.27, 1.66, -25.51, 2.42, 1.70, 7.46, repro,
2016-01-26,-2.00, 6.36, -30.31, 2.44, 1.73, 7.52, repro,
2016-01-27,-3.43, 6.96, -27.65, 2.51, 1.72, 7.64, repro,
2016-01-28,0.85, 5.95, -27.51, 2.43, 1.69, 7.42, repro,
2016-01-29,28.53, 299.65, -488.33, 631.49, 759.43, 1043.74, repro,
2016-02-03,-1.52, 0.45, -27.33, 6.24, 3.88, 18.94, repro,
2016-02-04,0.22, 5.50, -24.01, 2.44, 1.72, 7.46, repro,
2016-02-05,-4.52, -1.13, -37.76, 2.46, 1.72, 7.55, repro,
2016-02-06,-1.58, 2.57, -31.49, 2.39, 1.68, 7.40, repro,
2016-02-07,-4.13, 4.21, -39.88, 2.43, 1.69, 7.42, repro,
2016-02-08,-2.33, 0.89, -40.11, 2.41, 1.68, 7.38, repro,
2016-02-09,-2.12, -2.23, -38.02, 2.42, 1.68, 7.39, repro,
2016-02-10,4.08, 8.01, -32.69, 2.42, 1.68, 7.43, repro,
2016-02-11,0.07, 5.39, -39.70, 2.41, 1.69, 7.48, repro,
2016-02-12,-0.18, 5.70, -40.04, 2.41, 1.68, 7.45, repro,
2016-02-13,-1.17, 2.98, -37.59, 2.35, 1.67, 7.38, repro,
2016-02-14,-1.43, 3.45, -30.65, 2.41, 1.69, 7.42, repro,
2016-02-15,-1.44, 1.77, -26.87, 2.44, 1.69, 7.45, repro,
2016-02-16,-0.03, 2.34, -34.32, 2.43, 1.69, 7.49, repro,
2016-02-17,2.88, 3.85, -35.30, 2.36, 1.68, 7.49, repro,
2016-02-18,1.15, 1.02, -17.93, 2.36, 1.68, 7.39, repro,
2016-02-19,-6.05, 1.65, -20.45, 5.34, 3.93, 15.78, repro,
2016-02-20,-0.15, 1.09, -31.81, 5.08, 3.16, 14.49, repro,
2016-02-21,-1.38, 1.79, -35.79, 2.40, 1.68, 7.37, repro,
2016-02-22,-0.73, 2.22, -40.21, 2.43, 1.69, 7.41, repro,
2016-02-23,-1.70, 0.62, -33.77, 2.46, 1.70, 7.45, repro,
2016-02-24,-4.68, -6.31, -42.24, 2.43, 1.70, 7.50, repro,
2016-02-25,-2.76, -2.50, -39.22, 2.46, 1.70, 7.47, repro,
2016-02-26,0.03, -0.74, -25.99, 2.53, 1.76, 7.60, repro,
2016-02-27,-0.48, 3.00, -28.68, 2.40, 1.68, 7.37, repro,
2016-02-28,-1.17, 2.66, -23.60, 2.43, 1.72, 7.46, repro,
2016-02-29,0.32, 1.49, -33.92, 2.39, 1.71, 7.39, repro,
2016-03-01,0.68, 4.73, -32.85, 2.41, 1.73, 7.44, repro,
2016-03-02,-2.73, 0.52, -30.60, 2.44, 1.70, 7.44, repro,
2016-03-03,-2.24, 2.34, -26.13, 2.45, 1.75, 7.51, repro,
2016-03-04,-1.63, 3.33, -34.77, 2.45, 1.73, 7.59, repro,
2016-03-06,0.35, 1.94, -14.76, 2.49, 1.75, 7.53, repro,
2016-03-07,-1.86, -0.59, -24.70, 2.54, 1.77, 7.56, repro,
2016-03-08,-2.89, -2.50, -35.45, 2.56, 1.81, 7.78, repro,
2016-03-09,-1.84, 2.54, -27.20, 2.42, 1.72, 7.43, repro,
2016-03-10,0.12, 3.63, -25.68, 2.43, 1.69, 7.37, repro,
2016-03-11,0.74, 1.89, -24.92, 2.41, 1.68, 7.35, repro,
2016-03-12,-1.07, 2.60, -26.74, 2.72, 1.94, 8.41, repro,
2016-03-13,1.54, 1.24, -25.29, 2.45, 1.74, 7.63, repro,
2016-03-14,-1.18, 2.76, -29.34, 2.44, 1.76, 7.55, repro,
2016-03-15,-3.07, 1.24, -37.78, 2.38, 1.70, 7.39, repro,
2016-03-16,-2.30, 0.09, -30.43, 2.43, 1.75, 7.56, repro,
2016-03-17,-1.86, 0.76, -33.14, 2.55, 1.81, 7.72, repro,
2016-03-18,-2.11, -0.72, -42.21, 2.43, 1.75, 7.53, repro,
2016-03-19,-10.48, -4.58, -45.53, 2.62, 1.81, 8.03, repro,
2016-03-20,5.66, -0.61, -39.99, 2.52, 1.71, 7.46, repro,
2016-03-21,1.05, 2.13, -35.76, 2.37, 1.67, 7.21, repro,
2016-03-22,-2.52, -0.19, -33.27, 2.31, 1.65, 7.22, repro,
2016-03-23,-3.55, 2.22, -32.10, 2.37, 1.69, 7.33, repro,
2016-03-24,-3.81, 0.98, -31.07, 2.38, 1.68, 7.31, repro,
2016-03-25,-2.14, 0.20, -35.76, 2.49, 1.72, 7.56, repro,
2016-03-26,-0.67, -0.20, -36.12, 2.50, 1.70, 7.49, repro,
2016-03-27,-2.26, 0.88, -40.89, 2.42, 1.68, 7.34, repro,
2016-03-28,-3.54, 1.17, -37.68, 2.37, 1.67, 7.36, repro,
2016-03-29,-0.63, 0.40, -29.06, 2.46, 1.72, 7.52, repro,
2016-03-30,0.59, 1.72, -27.66, 2.43, 1.71, 7.46, repro,
2016-03-31,-0.98, 0.06, -42.98, 2.41, 1.70, 7.41, repro,
2016-04-01,-0.76, 0.60, -33.46, 2.49, 1.71, 7.54, repro,
2016-04-02,-3.23, -3.27, -33.43, 2.36, 1.68, 7.36, repro,
2016-04-03,-2.48, -2.19, -27.59, 2.37, 1.68, 7.42, repro,
2016-04-04,1.26, -0.80, -31.67, 2.33, 1.67, 7.32, repro,
2016-04-05,-1.70, 4.57, -32.10, 2.40, 1.68, 7.41, repro,
2016-04-06,-5.02, 3.95, -49.54, 2.38, 1.69, 7.42, repro,
2016-04-07,-2.63, -0.55, -37.61, 2.51, 1.77, 7.72, repro,
2016-04-08,0.38, -2.75, -37.82, 2.36, 1.68, 7.31, repro,
2016-04-09,-2.61, -2.75, -44.39, 2.38, 1.66, 7.33, repro,
2016-04-10,0.85, -3.46, -35.85, 2.42, 1.69, 7.40, repro,
2016-04-11,-0.40, -1.87, -28.19, 2.43, 1.69, 7.43, repro,
2016-04-12,-0.76, 0.98, -27.83, 2.43, 1.72, 7.51, repro,
2016-04-13,0.62, -0.20, -36.28, 2.34, 1.66, 7.24, repro,
2016-04-14,0.31, -2.79, -28.72, 2.37, 1.67, 7.30, repro,
2016-04-15,1.00, -0.51, -30.97, 2.36, 1.67, 7.31, repro,
2016-04-18,0.07, -0.76, -38.65, 2.40, 1.68, 7.47, repro,
2016-04-19,2.00, -2.91, -37.11, 2.48, 1.71, 7.61, repro,
2016-04-20,2.54, -2.64, -31.47, 2.52, 1.71, 7.73, repro,
2016-04-21,4.87, -3.36, -38.58, 2.39, 1.68, 7.37, repro,
2016-04-22,4.39, -1.54, -30.25, 2.38, 1.67, 7.37, repro,
2016-04-23,1.58, -1.16, -33.02, 2.44, 1.71, 7.48, repro,
2016-04-24,2.09, -2.97, -37.35, 2.48, 1.70, 7.51, repro,
2016-04-25,0.56, -1.33, -32.13, 2.45, 1.68, 7.44, repro,
2016-04-26,0.66, -2.32, -27.26, 2.49, 1.70, 7.53, repro,
2016-04-27,0.71, -2.04, -39.48, 2.43, 1.66, 7.31, repro,
2016-04-28,0.84, -0.85, -30.41, 2.40, 1.70, 7.41, repro,
2016-04-29,0.22, -2.22, -34.81, 2.48, 1.69, 7.58, repro,
2016-04-30,0.05, -0.68, -29.86, 2.43, 1.68, 7.40, repro,
2016-05-01,0.52, -4.97, -39.34, 2.41, 1.70, 7.45, repro,
2016-05-02,-0.42, -4.71, -33.38, 2.46, 1.70, 7.46, repro,
2016-05-03,10.04, -0.66, -38.70, 2.44, 1.70, 7.44, repro,
2016-05-04,5.58, -0.79, -34.99, 2.43, 1.70, 7.49, repro,
2016-05-05,-1.71, -3.23, -38.68, 2.48, 1.74, 7.63, repro,
2016-05-06,0.37, -2.67, -29.72, 2.57, 1.73, 7.67, repro,
2016-05-07,1.63, -3.24, -22.41, 2.62, 1.80, 7.79, repro,
2016-05-08,-2.40, -1.64, -22.20, 2.45, 1.72, 7.44, repro,
2016-05-09,0.68, 0.92, -22.49, 2.38, 1.66, 7.27, repro,
2016-05-10,0.02, -2.81, -39.99, 2.38, 1.66, 7.33, repro,
2016-05-11,-0.82, -2.31, -39.14, 2.38, 1.67, 7.34, repro,
2016-05-12,-3.42, 3.20, -32.13, 2.37, 1.68, 7.44, repro,
2016-05-13,-2.77, -2.74, -34.16, 2.39, 1.68, 7.38, repro,
2016-05-14,3.36, -2.00, -27.16, 2.35, 1.66, 7.29, repro,
2016-05-15,-3.57, -1.13, -45.65, 2.37, 1.67, 7.39, repro,
2016-05-16,-3.13, -2.26, -30.32, 2.43, 1.67, 7.40, repro,
2016-05-17,-1.91, -1.90, -26.91, 2.49, 1.69, 7.49, repro,
2016-05-18,-4.24, -5.54, -28.25, 2.42, 1.70, 7.39, repro,
2016-05-19,-0.41, -1.80, -24.00, 2.46, 1.72, 7.58, repro,
2016-05-20,0.73, -2.58, -25.36, 2.40, 1.65, 7.34, repro,
2016-05-21,-1.41, -3.07, -32.99, 2.34, 1.66, 7.30, repro,
2016-05-22,-1.47, -3.23, -24.10, 2.35, 1.65, 7.26, repro,
2016-05-23,-0.40, -3.33, -32.71, 2.45, 1.70, 7.49, repro,
2016-05-24,1.92, -2.28, -27.04, 2.41, 1.68, 7.41, repro,
2016-05-25,2.59, -2.93, -26.03, 2.42, 1.67, 7.37, repro,
2016-05-26,2.15, -4.77, -27.71, 2.43, 1.68, 7.38, repro,
2016-05-27,-1.73, -1.06, -27.05, 2.51, 1.70, 7.41, repro,
2016-05-28,-3.24, -0.23, -28.78, 2.40, 1.65, 7.31, repro,
2016-05-29,-3.70, 0.92, -31.14, 2.40, 1.67, 7.40, repro,
2016-05-30,-0.76, -2.30, -34.43, 2.35, 1.68, 7.35, repro,
2016-05-31,0.90, -3.83, -40.43, 2.40, 1.67, 7.46, repro,
2016-06-01,-0.13, -0.33, -20.82, 2.51, 1.70, 7.55, repro,
2016-06-02,4.00, 5.61, -36.74, 2.35, 1.67, 7.51, repro,
2016-06-03,-5.53, -1.64, -40.84, 2.39, 1.70, 7.48, repro,
2016-06-04,-0.31, -4.80, -48.11, 2.40, 1.67, 7.34, repro,
2016-06-05,-1.98, -5.68, -37.36, 2.42, 1.67, 7.41, repro,
2016-06-06,1.71, -4.03, -34.31, 2.41, 1.69, 7.46, repro,
2016-06-07,-1.42, -1.87, -22.68, 2.51, 1.70, 7.57, repro,
2016-06-08,2.14, 2.55, -17.51, 2.47, 1.68, 7.47, repro,
2016-06-09,2.05, 0.31, -22.63, 2.33, 1.68, 7.26, repro,
2016-06-10,0.73, -2.15, -26.53, 2.45, 1.71, 7.60, repro,
2016-06-11,-3.98, -4.05, -34.98, 2.36, 1.64, 7.32, repro,
2016-06-12,-2.47, -3.88, -35.89, 2.43, 1.65, 7.35, repro,
2016-06-13,-1.86, -3.92, -40.31, 2.41, 1.67, 7.44, repro,
2016-06-14,-0.07, 3.07, -28.80, 2.64, 1.92, 8.28, repro,
2016-06-15,-1.94, -3.95, -16.08, 2.32, 1.64, 7.17, repro,
2016-06-16,-1.97, -3.47, -32.19, 2.40, 1.68, 7.40, repro,
2016-06-17,-1.54, -4.70, -30.45, 2.41, 1.67, 7.39, repro,
2016-06-18,1.90, -2.86, -33.19, 2.36, 1.66, 7.29, repro,
2016-06-19,-3.14, -4.61, -31.83, 2.48, 1.68, 7.39, repro,
2016-06-20,2.54, -1.20, -29.09, 2.46, 1.70, 7.53, repro,
2016-06-21,-2.43, -3.26, -17.98, 2.42, 1.66, 7.38, repro,
2016-06-22,-2.58, -3.39, -17.30, 2.45, 1.71, 7.58, repro,
2016-06-23,0.71, 3.92, -24.95, 2.44, 1.67, 7.46, repro,
2016-06-24,-0.60, -1.96, -28.63, 2.39, 1.67, 7.50, repro,
2016-06-25,-1.77, -2.80, -23.86, 2.38, 1.66, 7.34, repro,
2016-06-26,-1.48, -3.62, -28.98, 2.43, 1.66, 7.45, repro,
2016-06-27,0.43, -9.77, -24.27, 2.45, 1.67, 7.43, repro,
2016-06-28,-3.32, -7.38, -26.64, 2.46, 1.67, 7.51, repro,
2016-06-29,-2.79, -5.24, -36.15, 2.49, 1.67, 7.57, repro,
2016-06-30,-1.61, -4.47, -25.91, 2.37, 1.68, 7.41, repro,
2016-07-01,-4.86, -5.54, -29.69, 2.51, 1.70, 7.67, repro,
2016-07-02,-2.85, -6.37, -31.65, 2.39, 1.65, 7.36, repro,
2016-07-03,-5.20, 0.09, -18.70, 2.52, 1.69, 7.68, repro,
2016-07-04,-4.06, 1.43, -20.66, 2.44, 1.69, 7.58, repro,
2016-07-05,-4.12, -0.03, -23.06, 2.34, 1.67, 7.35, repro,
2016-07-06,-1.37, -1.69, -17.15, 2.37, 1.66, 7.45, repro,
2016-07-07,-2.29, -6.63, -14.22, 2.36, 1.65, 7.34, repro,
2016-07-08,-5.30, -11.07, -23.89, 2.49, 1.71, 7.65, repro,
2016-07-09,-1.35, -2.79, -29.68, 2.46, 1.78, 7.84, repro,
2016-07-10,-0.57, -3.88, -28.08, 2.36, 1.66, 7.28, repro,
2016-07-11,-0.53, -3.41, -20.70, 2.32, 1.64, 7.22, repro,
2016-07-12,-0.00, -4.31, -23.25, 2.41, 1.65, 7.44, repro,
2016-07-13,-3.22, -4.73, -31.20, 2.45, 1.69, 7.55, repro,
2016-07-14,-4.78, -6.15, -27.53, 2.41, 1.67, 7.37, repro,
2016-07-15,-4.86, -0.59, -17.26, 2.41, 1.67, 7.38, repro,
2016-07-16,-2.37, -2.36, -21.59, 2.40, 1.65, 7.31, repro,
2016-07-17,-0.59, -4.10, -24.92, 2.38, 1.64, 7.29, repro,
2016-07-18,-6.02, -7.50, -25.89, 2.39, 1.66, 7.38, repro,
2016-07-19,-6.44, -7.61, -25.94, 2.41, 1.65, 7.31, repro,
2016-07-20,-6.64, -10.59, -19.03, 2.46, 1.72, 7.48, repro,
2016-07-21,-2.22, -3.24, -17.27, 2.44, 1.69, 7.48, repro,
2016-07-22,-1.51, -1.76, -17.30, 2.40, 1.69, 7.46, repro,
2016-07-23,-2.67, -3.13, -14.60, 2.36, 1.65, 7.34, repro,
2016-07-24,-1.03, -3.55, -17.67, 2.38, 1.68, 7.41, repro,
2016-07-25,-0.91, -4.10, -13.52, 2.41, 1.69, 7.34, repro,
2016-07-26,-1.26, -4.24, -19.84, 2.37, 1.71, 7.42, repro,
2016-07-27,-0.77, -3.31, -18.40, 2.43, 1.76, 7.66, repro,
2016-07-28,0.48, -3.51, -14.99, 2.32, 1.66, 7.29, repro,
2016-07-29,-2.09, -4.82, -16.73, 2.45, 1.72, 7.57, repro,
2016-07-30,-2.59, -4.97, -14.69, 2.34, 1.68, 7.31, repro,
2016-07-31,-0.51, -0.84, -10.30, 2.33, 1.65, 7.23, repro,
2016-08-01,-1.51, -3.15, -17.30, 2.35, 1.67, 7.29, repro,
2016-08-02,-2.48, -1.58, -26.21, 2.38, 1.67, 7.34, repro,
2016-08-03,-4.28, -0.01, -21.03, 2.35, 1.67, 7.28, repro,
2016-08-04,0.31, -4.52, -23.29, 2.35, 1.66, 7.33, repro,
2016-08-05,-2.41, -5.59, -11.74, 2.31, 1.66, 7.23, repro,
2016-08-06,-1.33, -5.54, -13.77, 2.43, 1.70, 7.43, repro,
2016-08-07,1.09, -2.57, -10.64, 2.41, 1.67, 7.41, repro,
2016-08-08,-3.28, -3.66, -16.83, 2.35, 1.65, 7.24, repro,
2016-08-09,-1.51, -1.34, -10.60, 2.36, 1.63, 7.24, repro,
2016-08-10,-0.94, -2.83, -17.94, 2.34, 1.64, 7.24, repro,
2016-08-11,-2.47, -4.48, -20.70, 2.36, 1.66, 7.28, repro,
2016-08-12,-0.54, -3.15, -17.60, 2.37, 1.66, 7.28, repro,
2016-08-13,-1.28, -4.19, -24.07, 2.39, 1.67, 7.27, repro,
2016-08-14,-0.77, -2.50, -15.25, 2.33, 1.64, 7.21, repro,
2016-08-15,0.57, -4.06, -15.03, 2.34, 1.65, 7.22, repro,
2016-08-16,-0.94, -4.36, -14.31, 2.39, 1.68, 7.40, repro,
2016-08-17,-0.95, -3.83, -17.68, 2.34, 1.66, 7.25, repro,
2016-08-18,-1.30, -3.59, -17.09, 2.39, 1.66, 7.34, repro,
2016-08-21,1.65, -1.78, -8.97, 2.32, 1.64, 7.19, repro,
2016-08-22,-0.96, 0.10, -2.02, 2.33, 1.65, 7.26, repro,
2016-08-23,-1.82, -2.61, -13.33, 2.33, 1.66, 7.26, repro,
2016-08-25,1.33, -3.27, -16.63, 2.35, 1.63, 7.24, repro,
2016-08-26,-0.72, -1.96, -14.63, 2.35, 1.66, 7.34, repro,
2016-08-27,-4.79, 0.23, -8.72, 2.30, 1.63, 7.20, repro,
2016-08-28,-1.98, 2.00, -14.47, 2.29, 1.64, 7.20, repro,
2016-08-29,4.14, 4.30, -11.99, 2.26, 1.62, 7.11, repro,
2016-08-30,4.59, -2.44, -14.89, 2.34, 1.63, 7.21, repro,